Wind_Speed
9 9 9 9 9 9 9 10 11 11 11 11 10 9 8 9 9 10 11 11 12 11 9 8 8 7 7 7 7 7 7 9 7
12 12 12 11 11 11 11 11 11 11 12 13 12 10 11 11 12 13 13 12 13 12 11 10 10 9 9 8 8 8 8 9 10
14 14 14 14 13 13 13 13 14 13 14 14 15 14 13 15 15 16 15 15 13 13 13 12 12 11 10 10 9 9 9 9 10
17 17 17 17 16 16 16 15 15 16 16 16 17 17 17 16 17 17 18 18 16 15 15 14 14 13 12 11 11 10 10 10 10
20 18 20 18 18 18 19 19 18 18 18 19 18 20 20 23 21 23 22 22 19 18 17 17 15 15 15 14 13 12 12 11 11
21 22 22 22 22 21 20 21 21 20 21 21 22 20 22 22 23 22 24 24 23 22 20 19 18 17 17 16 15 14 14 13 13
23 24 24 24 25 25 25 23 23 23 22 17 21 20 20 23 26 28 28 24 25 26 24 22 21 19 18 19 18 17 16 15 15
20 21 21 22 24 23 23 24 19 17 19 19 20 19 21 23 29 29 31 28 28 29 28 26 25 22 22 21 21 19 18 18 17
18 18 20 19 18 20 21 19 20 21 21 21 22 23 22 22 24 25 29 30 29 30 32 30 28 27 26 25 23 22 21 20 19
17 17 18 18 19 19 19 18 19 21 22 24 25 28 26 25 26 27 29 33 29 30 32 34 33 30 29 28 26 25 24 23 22
16 16 16 16 17 18 19 20 22 22 22 24 25 28 33 31 30 29 28 33 33 31 32 35 36 35 33 32 31 28 26 25 25
15 16 17 17 18 19 19 20 20 20 21 23 25 27 29 32 33 36 32 30 36 35 35 35 37 38 38 36 34 33 29 28 28
16 17 18 18 19 20 20 18 19 20 21 22 23 24 26 29 34 38 40 40 37 38 37 38 38 39 39 40 38 37 33 30 28
17 18 19 20 20 20 21 21 20 21 22 24 24 25 26 28 32 36 40 42 43 40 39 38 38 38 40 41 41 39 38 34 32
17 17 18 19 18 18 19 22 22 20 22 23 25 27 28 31 35 36 37 38 38 38 37 38 38 38 40 40 43 43 39 38 37
13 12 13 14 14 16 19 21 23 24 20 23 23 25 26 27 30 33 37 40 37 35 35 36 38 36 36 39 42 45 47 40 42
13 14 14 14 15 16 18 19 24 22 22 20 24 24 25 23 25 30 32 33 33 32 30 32 36 35 37 37 34 39 39 39 42
13 14 15 16 16 17 19 20 21 22 24 18 15 16 23 29 29 28 29 25 26 26 24 23 25 29 34 38 40 42 38 40 42
14 15 16 17 17 17 17 18 19 20 21 24 16 16 22 21 19 33 27 14 12 18 18 17 22 27 30 26 29 32 31 35 41
15 16 16 16 16 16 16 16 17 18 19 18 20 23 16 14 14 16 18 15 6 6 8 15 19 15 18 19 22 23 21 25 29
Wind_Direction
279 277 289 293 290 287 288 282 278 283 276 264 286 281 259 240 241 246 251 251 255 272 268 266 262 262 259 253 244 233 225 221 222
274 274 278 281 281 283 285 283 279 274 272 268 270 279 270 254 244 253 255 258 259 262 265 260 253 255 258 258 253 246 239 228 224
282 279 279 280 279 280 281 282 280 275 267 268 269 269 272 263 250 253 255 256 259 261 263 257 252 251 252 254 252 249 245 239 231
286 283 283 281 280 279 278 276 277 278 274 267 264 266 265 264 250 250 253 256 257 260 261 257 253 250 249 248 248 248 248 242 233
282 284 280 281 279 277 275 273 273 272 272 272 268 263 264 260 255 255 252 257 256 257 257 260 255 251 250 249 247 245 243 241 238
280 279 280 280 279 280 279 276 272 269 267 268 269 264 260 259 257 255 257 256 256 255 256 257 257 252 247 246 247 246 244 241 236
282 280 277 277 276 276 276 278 279 278 275 272 281 271 259 258 256 256 264 260 256 254 254 253 255 252 250 247 244 242 244 242 239
288 288 290 285 283 281 278 276 277 275 272 264 262 260 257 258 259 259 259 264 260 258 253 250 249 250 252 250 247 242 241 241 240
287 287 286 290 291 287 287 284 280 276 274 273 271 265 261 258 258 260 263 263 259 258 254 251 248 247 247 252 251 245 241 241 240
304 302 300 298 295 292 289 288 286 282 278 273 272 269 265 262 258 260 256 260 258 257 255 252 249 245 246 247 251 250 243 241 240
317 314 309 306 303 302 299 295 291 286 282 278 274 270 268 265 262 256 258 263 262 257 254 253 250 248 244 244 245 247 245 242 241
316 315 315 313 312 310 309 306 300 295 289 283 279 274 270 266 263 260 258 259 267 260 255 252 252 249 246 242 242 244 242 241 240
317 316 314 313 315 317 317 314 309 302 295 289 283 278 273 270 267 260 258 261 260 264 258 252 250 250 247 244 241 241 243 243 242
315 314 314 314 315 318 319 319 317 309 298 292 289 282 275 271 268 265 261 261 259 258 262 257 251 249 247 244 242 241 242 241 243
324 320 315 311 315 322 328 330 332 318 309 299 290 287 283 280 270 266 261 262 258 256 257 258 250 248 244 245 243 240 241 240 241
358 2 2 360 350 339 334 333 330 331 322 308 299 290 285 281 277 274 265 257 259 258 258 256 253 250 244 243 245 242 237 245 248
2 360 358 353 346 341 338 339 336 333 328 311 307 304 300 293 289 275 260 254 254 254 252 257 253 251 249 240 244 250 243 244 248
356 354 352 350 346 344 345 344 343 335 335 321 312 314 301 308 298 302 270 246 249 254 255 261 257 264 260 247 240 240 243 246 242
345 344 344 345 348 346 344 347 349 348 338 333 311 311 312 312 317 313 282 251 254 255 266 284 274 261 269 262 251 240 241 244 245
340 340 338 337 338 338 340 339 340 343 345 342 344 332 334 341 316 309 324 335 8 282 251 242 254 262 221 217 208 219 242 245 247
Height
1545 1545 1544 1543 1542 1542 1541 1540 1539 1539 1538 1538 1538 1538 1538 1538 1539 1539 1538 1538 1537 1536 1536 1536 1535 1535 1535 1534 1534 1534 1534 1534 1534
1543 1542 1542 1541 1540 1539 1539 1538 1537 1537 1536 1536 1536 1536 1536 1536 1538 1537 1536 1535 1535 1534 1534 1534 1533 1533 1533 1533 1533 1533 1533 1533 1533
1541 1540 1540 1539 1538 1537 1537 1536 1535 1535 1534 1534 1534 1534 1534 1533 1534 1533 1534 1533 1533 1532 1532 1532 1532 1531 1531 1531 1531 1531 1531 1531 1531
1539 1538 1537 1536 1535 1535 1534 1533 1532 1532 1532 1531 1531 1531 1531 1530 1531 1531 1530 1529 1530 1530 1529 1529 1529 1529 1529 1529 1529 1530 1530 1530 1530
1535 1535 1533 1533 1532 1531 1530 1529 1529 1528 1528 1527 1528 1527 1527 1526 1526 1525 1525 1526 1526 1527 1526 1526 1526 1527 1527 1527 1527 1527 1527 1528 1528
1531 1530 1530 1529 1528 1527 1527 1526 1525 1524 1522 1522 1523 1523 1522 1522 1522 1522 1521 1522 1522 1522 1523 1523 1523 1524 1524 1524 1525 1525 1525 1525 1526
1526 1525 1525 1524 1523 1523 1522 1522 1521 1520 1519 1520 1518 1517 1518 1517 1516 1516 1515 1517 1518 1518 1519 1519 1519 1520 1520 1521 1521 1522 1522 1523 1523
1522 1520 1520 1519 1518 1518 1516 1516 1516 1516 1515 1514 1515 1513 1513 1513 1509 1509 1509 1511 1512 1513 1514 1514 1515 1516 1517 1517 1518 1518 1518 1519 1520
1518 1517 1515 1514 1514 1513 1511 1511 1511 1510 1510 1510 1508 1507 1506 1506 1504 1504 1502 1503 1505 1506 1507 1509 1510 1511 1512 1513 1513 1514 1515 1515 1516
1514 1513 1512 1510 1509 1508 1507 1506 1505 1504 1504 1503 1502 1500 1500 1500 1499 1497 1495 1495 1497 1498 1500 1501 1503 1505 1506 1507 1508 1509 1510 1511 1511
1511 1510 1509 1507 1505 1504 1502 1501 1499 1497 1497 1496 1495 1494 1491 1491 1491 1490 1490 1487 1489 1490 1492 1493 1496 1498 1500 1501 1502 1503 1504 1505 1506
1507 1506 1504 1503 1501 1499 1497 1496 1493 1491 1490 1488 1487 1486 1485 1483 1482 1480 1480 1480 1479 1482 1483 1485 1487 1490 1492 1494 1495 1497 1498 1499 1500
1505 1503 1501 1500 1498 1495 1493 1492 1489 1487 1485 1482 1480 1478 1476 1475 1474 1471 1470 1470 1472 1471 1474 1476 1477 1480 1483 1485 1488 1489 1491 1493 1495
1503 1501 1498 1496 1494 1492 1490 1488 1485 1481 1479 1476 1473 1470 1467 1467 1465 1462 1461 1460 1460 1463 1464 1466 1468 1470 1473 1476 1479 1482 1484 1486 1488
1501 1498 1495 1493 1491 1489 1486 1484 1481 1478 1474 1470 1467 1464 1461 1457 1455 1454 1453 1452 1452 1452 1456 1456 1458 1461 1463 1467 1469 1472 1475 1478 1479
1499 1497 1494 1491 1489 1486 1484 1481 1478 1475 1473 1467 1462 1458 1455 1451 1449 1446 1443 1443 1444 1444 1446 1448 1449 1451 1453 1456 1460 1462 1466 1468 1471
1499 1496 1494 1491 1488 1486 1483 1480 1475 1472 1470 1465 1460 1451 1449 1445 1443 1440 1437 1435 1435 1437 1437 1439 1441 1442 1444 1443 1448 1453 1454 1456 1460
1498 1495 1492 1489 1486 1483 1480 1477 1473 1468 1466 1464 1462 1452 1447 1442 1439 1436 1432 1428 1429 1433 1431 1431 1435 1436 1436 1432 1438 1443 1445 1448 1453
1497 1494 1491 1488 1485 1482 1479 1475 1472 1468 1464 1460 1459 1456 1451 1444 1435 1431 1430 1422 1423 1427 1428 1429 1430 1430 1430 1432 1428 1435 1436 1442 1445
1495 1492 1490 1487 1484 1481 1477 1474 1471 1467 1463 1459 1455 1451 1449 1445 1440 1433 1426 1424 1415 1422 1422 1421 1429 1423 1421 1422 1416 1424 1431 1435 1438